Wind_Speed
14 14 13 13 13 13 13 14 15 14 14 15 15 15 15 14 15 15 16 17 17 17 16 16 17 18 18 17 17 17 18 18 18 18 19 19 20 20 20 19 19 18 19
14 14 14 14 14 15 15 14 14 15 15 14 14 14 14 15 15 16 16 16 16 16 15 15 16 16 17 17 17 17 18 18 19 19 19 19 19 19 19 19 19 20 20
13 14 14 14 14 14 14 13 14 14 15 14 14 14 14 14 14 14 15 15 15 15 16 15 15 16 17 17 17 18 18 18 18 19 19 20 19 19 19 19 20 21 21
12 13 13 13 13 13 12 13 14 14 15 16 15 15 15 13 14 14 15 15 14 14 15 14 15 16 16 17 17 17 18 19 19 20 20 20 19 20 19 20 21 21 21
11 11 11 12 12 12 12 12 14 14 15 16 16 15 15 15 14 15 14 15 15 14 14 14 15 15 16 16 17 17 17 18 18 19 19 20 20 20 20 20 21 22 22
10 11 12 12 12 11 11 12 13 13 14 15 15 15 15 15 15 15 14 14 14 14 15 15 15 15 15 16 16 16 17 17 17 17 18 19 19 19 20 21 21 22 22
11 11 12 12 11 11 11 11 11 12 13 13 13 13 13 13 13 14 14 13 14 14 15 14 14 15 16 16 16 16 17 17 17 17 18 19 19 20 21 21 22 22 22
11 11 11 10 11 11 11 11 11 12 12 12 12 13 12 12 12 13 13 13 13 13 13 14 14 14 15 15 15 16 16 16 17 17 18 18 19 20 20 21 21 22 22
10 11 11 10 10 10 10 11 11 11 11 12 12 12 11 11 12 12 12 11 12 12 12 12 13 13 13 14 14 15 15 15 16 17 18 18 19 19 20 20 20 21 21
9 9 8 9 10 9 9 9 10 11 11 11 11 10 10 10 10 11 11 11 11 11 11 11 12 12 12 13 14 15 14 14 15 16 16 17 17 18 19 20 20 20 21
8 8 8 9 9 9 9 9 10 10 10 10 10 9 9 10 10 10 11 11 11 10 10 11 11 12 12 12 13 14 14 15 15 16 16 17 17 19 20 21 21 22 22
8 8 8 8 8 8 8 9 10 10 9 9 9 9 9 9 10 10 10 10 10 10 10 11 11 11 12 12 13 14 14 14 15 16 16 16 17 18 19 21 21 22 22
7 7 8 8 8 8 8 8 9 9 9 8 8 9 9 9 9 10 10 10 9 10 10 10 10 11 12 12 12 13 14 14 14 15 15 16 17 18 19 20 20 21 22
7 7 8 8 8 8 8 8 9 9 9 9 9 9 8 8 9 9 9 9 9 9 9 9 9 10 10 12 12 13 13 14 14 14 15 15 16 18 19 19 20 21 21
7 7 7 8 8 9 10 9 10 9 9 8 8 7 8 8 8 8 8 8 8 8 9 9 9 10 11 11 12 13 14 14 14 14 15 16 17 17 18 19 20 20 21
7 7 7 8 8 9 10 9 9 9 9 8 7 8 9 9 8 8 8 8 9 9 10 10 11 11 11 12 14 14 15 15 15 15 16 16 17 17 18 19 20 21 22
8 8 8 9 9 9 8 9 9 9 8 8 8 8 8 8 8 8 9 9 10 10 10 10 11 12 12 13 14 14 14 13 14 14 15 16 17 18 19 20 21 22 23
8 8 9 9 9 9 8 8 9 9 8 8 8 8 8 8 8 9 10 10 10 11 11 11 12 12 12 14 14 14 14 14 14 14 15 16 17 18 19 20 21 22 23
9 9 9 9 9 8 8 9 9 9 8 8 8 8 8 8 8 9 9 9 11 11 12 12 13 13 13 14 14 15 14 14 14 14 15 16 17 19 20 21 22 22 22
10 10 9 9 9 9 9 9 9 9 9 9 9 8 8 8 9 9 10 11 12 12 12 12 12 13 13 13 14 14 14 14 14 15 16 17 18 19 20 21 21 22 22
10 10 9 9 9 9 9 9 9 9 9 9 9 9 9 9 10 11 11 12 12 12 12 12 13 13 14 14 14 14 15 15 15 15 17 18 19 19 20 21 21 21 21
10 10 9 8 8 9 9 9 9 9 8 8 9 10 10 11 11 12 12 12 12 13 13 13 13 14 14 14 14 14 15 16 16 17 17 18 18 19 20 20 20 21 21
10 9 8 8 8 8 8 9 9 9 8 9 10 10 11 12 12 12 12 12 13 13 13 14 14 14 14 15 15 15 16 16 17 17 17 17 18 19 19 19 19 19 19
8 8 7 7 7 8 8 9 9 9 9 10 11 11 12 12 12 12 12 12 13 13 14 14 14 14 15 15 16 16 16 16 17 17 17 17 17 18 19 19 19 19 19
9 8 8 8 8 8 9 9 9 10 10 11 11 12 12 12 11 12 12 13 14 14 14 14 15 15 15 15 16 16 16 16 17 18 17 17 17 18 18 19 20 20 20
10 9 8 8 9 9 9 9 9 10 11 11 11 11 11 11 11 12 13 13 14 14 14 15 15 15 15 16 16 16 16 17 17 17 17 17 17 18 19 20 20 20 20
Wind_Direction
282 281 280 280 284 285 280 277 278 280 278 280 282 283 281 282 283 285 286 284 282 281 277 275 271 267 263 263 264 265 266 269 268 269 270 271 271 273 272 273 274 275 277
281 280 280 278 284 285 283 280 277 277 276 277 279 280 282 283 283 287 287 285 283 281 277 277 273 268 264 264 266 267 268 270 268 267 268 270 271 271 272 272 274 275 278
291 285 281 282 285 286 282 284 280 278 278 278 280 279 282 283 287 285 287 287 286 285 281 276 272 269 269 270 271 272 268 269 266 268 270 272 272 272 271 272 274 276 277
296 290 284 285 289 289 286 284 282 281 282 279 278 278 274 277 285 287 286 287 286 284 282 277 274 271 271 272 273 272 270 268 266 267 270 271 272 271 269 272 276 277 276
289 287 286 289 289 290 288 287 285 281 282 283 277 279 277 278 286 287 287 288 285 285 281 276 276 276 274 274 274 274 273 269 268 267 269 272 272 274 273 275 278 277 277
288 286 288 289 290 292 290 290 291 290 289 285 280 279 280 283 285 286 288 287 285 286 284 280 280 279 275 274 277 277 276 272 270 270 272 273 274 277 280 281 281 279 278
291 291 291 291 296 300 293 290 292 294 294 290 285 281 283 286 289 292 292 290 288 286 283 282 283 281 278 278 279 279 278 273 271 273 274 274 276 279 283 284 282 280 280
291 292 296 298 305 306 303 300 298 296 295 295 293 285 284 289 295 298 296 293 293 288 283 281 283 284 283 282 280 280 279 275 273 276 279 279 279 281 285 285 283 282 282
291 298 304 306 310 306 304 303 301 300 297 297 295 290 284 288 295 298 296 296 296 292 285 285 287 286 286 285 282 281 279 279 279 280 282 281 282 283 285 287 286 285 285
304 306 311 312 315 310 306 306 305 302 298 296 294 290 289 292 297 298 298 298 298 295 290 288 290 290 289 289 287 284 280 282 282 284 285 285 285 287 289 289 290 289 290
316 315 312 313 315 313 311 313 310 307 302 300 299 293 294 297 299 297 298 301 302 298 295 293 293 292 289 291 291 287 286 287 287 286 286 286 287 290 291 291 292 292 292
317 315 314 318 318 316 315 316 313 311 308 307 308 304 302 301 300 299 302 304 303 299 295 294 293 294 293 294 295 296 294 292 292 290 289 289 290 291 293 293 294 293 293
312 314 319 323 324 325 323 319 317 313 313 310 309 311 309 306 305 307 309 311 305 302 302 301 299 298 299 298 298 301 300 298 296 295 292 290 292 296 297 297 297 297 297
313 312 317 324 328 331 331 327 322 318 315 313 310 312 314 313 312 314 312 313 309 305 304 307 308 306 305 304 303 303 306 304 301 299 295 293 297 299 300 301 301 301 301
314 310 317 323 326 329 331 331 326 320 317 315 314 316 318 316 318 318 317 314 311 308 307 307 311 309 307 308 309 306 307 304 300 298 296 298 300 300 302 304 305 305 305
319 317 317 318 322 327 329 330 330 329 326 324 322 322 318 316 317 321 319 318 317 313 309 307 308 307 304 305 309 307 306 304 301 299 300 302 302 304 305 306 307 305 305
318 315 312 315 316 321 326 331 331 331 331 333 333 329 325 321 318 316 315 313 313 311 309 309 310 308 308 309 311 308 305 305 306 306 305 307 309 309 309 309 308 308 308
314 311 307 313 316 317 320 324 327 330 330 330 332 332 330 328 328 322 318 315 313 313 310 309 306 309 311 312 312 310 308 306 306 308 309 310 312 311 311 309 309 310 311
309 309 305 307 312 316 319 322 326 330 329 326 326 326 326 326 326 326 325 324 323 320 315 315 316 315 314 313 311 311 311 310 309 310 311 311 312 314 313 312 312 312 313
302 305 304 306 310 313 316 321 325 328 327 325 325 323 323 324 327 330 328 327 326 327 324 322 322 319 316 313 311 310 312 311 311 313 314 314 314 315 315 316 315 314 314
301 304 306 307 310 313 316 320 322 323 324 327 327 324 323 324 324 326 327 328 327 328 329 326 325 323 319 316 315 316 316 313 312 312 314 316 316 317 317 318 318 317 316
300 304 307 309 311 315 316 318 320 321 324 327 326 324 324 323 322 322 323 325 327 329 330 328 324 323 320 319 318 318 320 318 314 312 314 317 319 320 321 321 321 322 321
297 298 303 309 311 313 315 320 322 322 322 323 323 324 323 322 322 322 322 323 326 326 327 327 325 323 321 321 322 320 320 320 319 317 317 318 320 321 323 325 326 326 326
293 294 296 299 304 311 315 320 323 324 321 320 321 323 323 323 322 320 320 321 322 323 324 325 325 325 324 322 322 321 320 320 321 321 320 321 323 325 327 329 330 329 329
287 287 289 293 300 306 310 317 320 320 320 319 319 321 323 324 322 321 321 321 320 321 323 324 325 325 324 323 323 324 322 320 322 324 325 325 325 326 328 329 330 332 330
281 284 285 288 297 301 303 309 315 316 317 319 319 319 321 321 321 321 322 323 324 323 323 325 327 325 324 322 322 322 322 322 322 324 327 327 327 327 327 329 329 330 332
Height
5823 5822 5822 5821 5820 5819 5819 5820 5819 5819 5818 5818 5817 5816 5816 5815 5814 5813 5812 5811 5810 5809 5809 5809 5809 5810 5810 5811 5811 5811 5812 5812 5813 5814 5814 5814 5814 5815 5815 5815 5815 5815 5815
5819 5819 5819 5818 5817 5817 5816 5815 5815 5815 5814 5814 5813 5812 5812 5812 5810 5809 5808 5807 5806 5805 5805 5805 5805 5805 5806 5806 5807 5807 5807 5808 5808 5809 5809 5809 5810 5810 5810 5810 5810 5810 5810
5816 5815 5815 5815 5814 5813 5813 5812 5811 5811 5810 5810 5809 5809 5808 5807 5806 5806 5804 5803 5802 5801 5801 5801 5801 5801 5801 5802 5802 5802 5803 5803 5803 5804 5805 5805 5805 5805 5805 5805 5805 5805 5805
5813 5812 5812 5811 5810 5809 5809 5808 5807 5807 5806 5806 5806 5805 5804 5803 5803 5802 5801 5799 5799 5798 5798 5797 5797 5797 5797 5797 5797 5797 5798 5798 5799 5799 5799 5800 5800 5800 5800 5800 5800 5799 5799
5811 5810 5809 5808 5807 5806 5805 5804 5804 5803 5803 5802 5802 5801 5800 5799 5799 5798 5797 5796 5795 5795 5794 5794 5794 5793 5793 5793 5793 5793 5793 5793 5793 5794 5794 5794 5795 5795 5795 5795 5794 5794 5793
5808 5807 5806 5805 5803 5803 5802 5801 5800 5800 5799 5799 5798 5797 5797 5796 5795 5794 5793 5792 5791 5791 5790 5790 5790 5789 5789 5789 5788 5789 5789 5789 5789 5789 5790 5790 5790 5790 5790 5789 5788 5788 5787
5805 5804 5803 5802 5801 5800 5799 5798 5797 5797 5796 5795 5794 5794 5793 5792 5792 5791 5789 5788 5787 5787 5786 5786 5786 5785 5785 5784 5784 5784 5784 5784 5785 5785 5785 5785 5785 5785 5784 5783 5782 5781 5781
5802 5801 5800 5799 5798 5797 5796 5795 5795 5794 5793 5792 5791 5790 5790 5789 5788 5787 5785 5784 5783 5782 5782 5782 5782 5781 5781 5780 5780 5780 5780 5780 5780 5780 5780 5780 5780 5779 5778 5777 5776 5775 5774
5799 5798 5797 5796 5795 5794 5793 5793 5791 5791 5790 5789 5788 5787 5787 5786 5785 5784 5782 5781 5780 5779 5778 5778 5778 5778 5777 5777 5777 5776 5776 5776 5776 5776 5775 5775 5774 5773 5772 5771 5770 5769 5767
5797 5795 5795 5794 5793 5792 5791 5790 5789 5788 5787 5786 5785 5784 5784 5783 5782 5781 5779 5778 5777 5776 5775 5775 5775 5775 5774 5774 5773 5773 5772 5771 5771 5771 5770 5769 5768 5767 5766 5765 5764 5762 5761
5795 5794 5793 5792 5791 5790 5789 5788 5787 5785 5784 5783 5782 5782 5781 5780 5779 5778 5777 5776 5774 5774 5773 5773 5772 5772 5771 5770 5770 5769 5768 5767 5767 5766 5765 5764 5763 5762 5761 5760 5758 5756 5754
5794 5793 5792 5791 5790 5788 5787 5786 5785 5783 5782 5781 5780 5780 5779 5777 5776 5775 5774 5773 5772 5771 5771 5770 5770 5769 5768 5768 5767 5766 5765 5764 5763 5762 5761 5760 5759 5757 5756 5754 5752 5750 5748
5793 5792 5791 5790 5788 5787 5786 5784 5783 5782 5781 5779 5778 5778 5776 5775 5774 5773 5772 5771 5770 5769 5769 5768 5767 5766 5765 5765 5764 5763 5761 5760 5759 5758 5757 5755 5754 5752 5750 5748 5746 5744 5741
5791 5791 5789 5788 5787 5786 5784 5783 5782 5781 5779 5778 5776 5776 5775 5773 5772 5771 5770 5769 5768 5767 5767 5766 5765 5764 5763 5762 5761 5760 5758 5757 5755 5754 5753 5751 5749 5748 5745 5743 5740 5738 5735
5790 5789 5788 5787 5786 5785 5783 5782 5780 5779 5777 5776 5775 5774 5773 5772 5770 5770 5769 5767 5766 5765 5765 5764 5763 5762 5761 5759 5758 5756 5755 5753 5752 5750 5749 5747 5745 5743 5740 5738 5735 5732 5729
5789 5788 5787 5786 5785 5783 5782 5780 5779 5777 5776 5774 5773 5772 5771 5770 5769 5768 5767 5766 5765 5764 5763 5762 5761 5759 5758 5757 5755 5753 5752 5750 5748 5746 5744 5742 5740 5738 5735 5733 5730 5727 5724
5788 5787 5786 5785 5783 5782 5781 5779 5778 5776 5775 5773 5772 5771 5770 5769 5768 5767 5766 5764 5763 5762 5761 5759 5758 5757 5755 5754 5752 5749 5748 5746 5744 5742 5740 5738 5736 5733 5730 5727 5724 5721 5718
5786 5785 5784 5783 5782 5781 5779 5778 5776 5775 5773 5772 5771 5770 5768 5767 5766 5765 5764 5763 5761 5760 5758 5757 5755 5754 5752 5750 5748 5745 5744 5742 5740 5738 5736 5734 5731 5728 5726 5723 5719 5716 5712
5785 5784 5783 5782 5781 5779 5778 5777 5775 5773 5772 5771 5769 5768 5767 5766 5765 5764 5762 5761 5759 5758 5756 5754 5752 5750 5748 5746 5744 5742 5740 5738 5736 5734 5732 5729 5727 5724 5720 5717 5714 5710 5706
5783 5782 5781 5780 5779 5778 5776 5775 5774 5772 5771 5769 5768 5766 5765 5764 5763 5762 5760 5759 5757 5755 5753 5751 5749 5747 5745 5743 5741 5739 5737 5735 5733 5730 5728 5725 5722 5719 5715 5712 5708 5705 5701
5781 5780 5779 5778 5777 5776 5775 5774 5772 5771 5769 5768 5766 5765 5764 5762 5761 5760 5758 5756 5755 5753 5751 5749 5747 5744 5742 5740 5737 5735 5733 5731 5729 5726 5724 5721 5717 5714 5710 5707 5703 5699 5695
5779 5778 5777 5776 5775 5774 5773 5772 5771 5769 5768 5766 5765 5763 5762 5760 5759 5758 5756 5754 5753 5751 5749 5747 5744 5742 5739 5737 5734 5732 5729 5727 5725 5722 5719 5716 5713 5710 5706 5702 5698 5694 5690
5777 5776 5775 5774 5773 5772 5772 5770 5769 5768 5766 5765 5763 5762 5760 5758 5757 5755 5754 5752 5750 5749 5747 5744 5742 5739 5736 5734 5731 5728 5726 5723 5721 5718 5715 5712 5709 5706 5702 5698 5694 5690 5686
5775 5774 5773 5773 5772 5771 5770 5769 5768 5766 5765 5763 5762 5760 5758 5756 5755 5753 5751 5750 5748 5746 5744 5741 5739 5736 5733 5731 5728 5725 5722 5720 5717 5714 5711 5708 5705 5702 5698 5694 5690 5686 5683
5772 5772 5771 5771 5770 5769 5768 5767 5766 5764 5763 5761 5759 5758 5756 5754 5752 5751 5749 5747 5745 5743 5741 5739 5736 5733 5730 5727 5724 5722 5719 5717 5714 5711 5708 5705 5702 5699 5695 5691 5687 5683 5679
5769 5769 5769 5769 5768 5767 5766 5765 5764 5762 5761 5759 5757 5756 5754 5752 5750 5749 5747 5745 5742 5740 5737 5735 5732 5729 5727 5723 5721 5718 5716 5713 5710 5708 5705 5701 5698 5695 5692 5688 5684 5680 5676